Location: Melbourne
(37.8170°S, 144.9670°E)
Time: 17:01:28
(UTC+11:00)

Explorer 11/Cluster Stage 4 - Visible Passes

Search period start: 08 February 2016 00:00
Search period end: 18 February 2016 00:00
Orbit: 467 x 1267 km, 28.8° (Epoch: 07 February)

Date Brightness Start Highest point End Pass type
(mag) Time Alt. Az. Time Alt. Az. Time Alt. Az.
08 Feb 7.3 21:52:54 10° WNW 21:56:05 20° NNW 21:56:43 19° N visible
09 Feb 7.5 21:43:30 10° WNW 21:46:44 20° NNW 21:47:57 17° N visible
10 Feb 7.7 21:34:07 10° WNW 21:37:22 19° NNW 21:39:11 15° NNE visible
11 Feb 7.9 21:24:43 10° WNW 21:27:59 18° NNW 21:30:25 12° NNE visible
12 Feb 8.1 21:15:21 10° WNW 21:18:34 17° NNW 21:21:26 10° NNE visible
13 Feb 8.3 21:05:59 10° WNW 21:09:08 16° NNW 21:11:56 10° NNE visible
14 Feb 8.4 20:56:40 10° WNW 20:59:39 15° NNW 21:02:20 10° N visible
15 Feb 8.6 20:47:25 10° WNW 20:50:09 14° NNW 20:52:40 10° N visible
